CW6344 Weather Reports


Display with metric or nautical units.
time (UTC)temp
F
wind
direction
speed
MPH
gust
MPH
rain 1hr
in
rain 24hr
in
rain mn
in
humidity
%
barometer
mb
20260902224438 75 105 0.0 0.0 0.00 0.02 0.02 89 1016.9
20260902223438 75 99 0.0 0.0 0.00 0.02 0.02 89 1016.9
20260902222439 75 123 0.0 0.0 0.00 0.02 0.02 89 1016.9
20260902221438 75 76 0.0 0.0 0.00 0.02 0.02 88 1016.9
20260902220439 75 76 0.0 0.0 0.00 0.02 0.02 88 1017.1
20260902215438 75 76 0.0 0.0 0.00 0.02 0.02 88 1016.8
20260902214439 75 76 0.0 0.0 0.00 0.02 0.02 88 1017.2
20260902213439 76 76 0.0 0.0 0.00 0.02 0.02 88 1017.5
20260902212509 76 76 0.0 0.0 0.00 0.02 0.02 87 1017.5
20260902211439 75 76 0.0 0.0 0.00 0.02 0.02 88 1017.3
20260902210439 75 76 0.0 0.0 0.00 0.02 0.02 88 1017.6
20260902205439 75 61 0.0 0.0 0.00 0.02 0.02 88 1017.6
20260902204439 75 61 0.0 0.0 0.00 0.02 0.02 88 1018.0
20260902203439 75 61 0.0 0.0 0.00 0.02 0.02 89 1018.3
20260902202509 75 61 0.0 0.0 0.00 0.02 0.02 88 1018.1
20260902200439 75 61 0.0 0.0 0.00 0.02 0.02 88 1017.9
20260902194509 76 61 0.0 0.0 0.02 0.02 0.02 87 1018.2
20260902193439 76 61 0.0 2.0 0.02 0.02 0.02 85 1018.2
20260902192439 77 331 0.0 0.0 0.02 0.02 0.02 88 1018.0
20260902191439 76 331 0.0 0.0 0.02 0.02 0.02 87 1018.3
20260902190439 77 331 0.0 0.0 0.02 0.02 0.02 83 1018.4
20260902185439 81 298 1.0 3.0 0.00 0.00 0.00 79 1019.1
20260902184439 83 138 2.0 3.0 0.00 0.00 0.00 80 1019.5
20260902183439 83 320 0.0 0.0 0.00 0.00 0.00 81 1018.9
20260902182439 84 320 0.0 1.0 0.00 0.00 0.00 78 1018.9
20260902181439 85 320 0.0 0.0 0.00 0.00 0.00 80 1018.8
20260902180439 85 342 0.0 2.0 0.00 0.00 0.00 78 1018.6
20260902175439 85 225 0.0 0.0 0.00 0.00 0.00 79 1018.6
20260902174439 84 150 0.0 0.0 0.00 0.00 0.00 78 1018.5
20260902173439 85 80 0.0 1.0 0.00 0.00 0.00 78 1018.3
20260902172439 84 160 1.0 3.0 0.00 0.00 0.00 78 1018.4
20260902171439 84 108 0.0 3.0 0.00 0.00 0.00 78 1018.4
20260902170439 84 63 0.0 3.0 0.00 0.00 0.00 77 1018.2
20260902164439 83 111 0.0 2.0 0.00 0.00 0.00 79 1018.0
20260902162439 83 226 1.0 2.0 0.00 0.00 0.00 79 1018.2
20260902161439 83 226 0.0 1.0 0.00 0.00 0.00 79 1018.2
20260902160439 83 25 0.0 0.0 0.00 0.00 0.00 80 1018.3
20260902155439 83 19 0.0 1.0 0.00 0.00 0.00 81 1018.1
20260902154439 82 15 2.0 2.0 0.00 0.00 0.00 81 1018.2
20260902153439 82 52 0.0 2.0 0.00 0.00 0.00 81 1018.2
20260902152439 82 36 0.0 2.0 0.00 0.00 0.00 81 1018.2
20260902151439 81 55 1.0 2.0 0.00 0.00 0.00 82 1018.2
20260902150439 81 64 1.0 1.0 0.00 0.00 0.00 82 1018.2
20260902145439 81 55 2.0 2.0 0.00 0.00 0.00 82 1018.3
20260902144439 80 82 2.0 2.0 0.00 0.00 0.00 82 1018.2
20260902143439 81 57 0.0 3.0 0.00 0.00 0.00 83 1018.1
20260902142439 80 35 0.0 2.0 0.00 0.00 0.00 83 1018.0
20260902141439 80 69 1.0 2.0 0.00 0.00 0.00 83 1018.1
20260902140439 80 186 0.0 1.0 0.00 0.00 0.00 84 1018.0
20260902135439 80 186 0.0 1.0 0.00 0.00 0.00 84 1018.1
20260902134439 80 284 0.0 0.0 0.00 0.00 0.00 84 1017.9
20260902133439 80 336 1.0 2.0 0.00 0.00 0.00 84 1017.8
20260902132439 80 350 0.0 0.0 0.00 0.00 0.00 86 1017.6
20260902130439 80 347 0.0 0.0 0.00 0.00 0.00 87 1017.5
20260902125439 80 347 0.0 1.0 0.00 0.00 0.00 87 1017.5
20260902124439 80 348 0.0 0.0 0.00 0.00 0.00 88 1017.4
20260902123439 80 348 0.0 0.0 0.00 0.00 0.00 88 1017.5
20260902122439 79 343 0.0 0.0 0.00 0.00 0.00 90 1017.5
20260902121439 79 343 0.0 0.0 0.00 0.00 0.00 90 1017.4
20260902120509 78 343 0.0 0.0 0.00 0.00 0.00 91 1017.4
20260902115439 78 343 0.0 0.0 0.00 0.00 0.00 92 1017.3
20260902114439 77 343 0.0 0.0 0.00 0.00 0.00 92 1017.3
20260902113439 77 343 0.0 0.0 0.00 0.00 0.00 92 1017.3
20260902112439 77 343 0.0 0.0 0.00 0.00 0.00 92 1017.2
20260902111439 76 138 0.0 0.0 0.00 0.00 0.00 92 1017.1
20260902110439 76 138 0.0 0.0 0.00 0.00 0.00 92 1017.0
20260902105439 76 292 0.0 0.0 0.00 0.00 0.00 92 1016.9
20260902104439 76 231 0.0 0.0 0.00 0.00 0.00 92 1016.8
20260902103439 76 32 0.0 0.0 0.00 0.00 0.00 92 1016.9
20260902102439 76 32 0.0 0.0 0.00 0.00 0.00 92 1016.8
20260902101439 76 32 0.0 0.0 0.00 0.00 0.00 92 1016.6
20260902100439 76 32 0.0 0.0 0.00 0.00 0.00 92 1016.6
20260902094509 76 32 0.0 0.0 0.00 0.00 0.00 91 1016.5
20260902093439 76 32 0.0 0.0 0.00 0.00 0.00 91 1016.5
20260902092439 76 32 0.0 0.0 0.00 0.00 0.00 91 1016.5
20260902090439 77 32 0.0 0.0 0.00 0.00 0.00 91 1016.6
20260902085439 77 32 0.0 0.0 0.00 0.00 0.00 90 1016.5
20260902084439 77 32 0.0 0.0 0.00 0.00 0.00 90 1016.5
20260902083439 77 32 0.0 0.0 0.00 0.00 0.00 89 1016.4
20260902082439 77 32 0.0 0.0 0.00 0.00 0.00 89 1016.3
20260902080439 78 32 0.0 0.0 0.00 0.00 0.00 88 1016.2
20260902075439 78 32 0.0 0.0 0.00 0.00 0.00 88 1016.2
20260902074439 78 32 0.0 0.0 0.00 0.00 0.00 87 1016.3
20260902073439 78 32 0.0 0.0 0.00 0.00 0.00 87 1016.2
20260902072439 78 32 0.0 0.0 0.00 0.00 0.00 87 1016.2
20260902071439 78 32 0.0 0.0 0.00 0.00 0.00 89 1016.3
20260902070439 78 360 0.0 0.0 0.00 0.00 0.00 88 1016.0
20260902064439 78 360 0.0 0.0 0.00 0.00 0.00 87 1016.0
20260902063439 78 360 0.0 0.0 0.00 0.00 0.00 87 1016.1
20260902062439 78 360 0.0 0.0 0.00 0.00 0.00 86 1016.1
20260902060509 79 360 0.0 0.0 0.00 0.00 0.00 85 1016.0
20260902055439 79 360 0.0 0.0 0.00 0.00 0.00 86 1015.9
20260902054439 79 360 0.0 0.0 0.00 0.00 0.00 86 1015.9
20260902052439 79 360 0.0 0.0 0.00 0.00 0.00 85 1015.8
20260902050440 80 360 0.0 0.0 0.00 0.00 0.00 83 1015.9
20260902044439 80 360 0.0 0.0 0.00 0.00 0.00 83 1015.8
20260902043440 80 360 0.0 0.0 0.00 0.00 0.00 84 1015.9
20260902042439 80 360 0.0 0.0 0.00 0.00 0.00 83 1015.9
20260902041439 80 360 0.0 0.0 0.00 0.00 0.00 84 1016.0
20260902040439 80 360 0.0 0.0 0.00 0.00 0.00 84 1015.9
20260902035440 80 360 0.0 0.0 0.00 0.00 0.00 83 1015.6
20260902034440 80 360 0.0 0.0 0.00 0.00 0.00 84 1015.4
20260902033440 80 360 0.0 0.0 0.00 0.00 0.00 84 1015.3
20260902032509 81 360 0.0 0.0 0.00 0.00 0.00 83 1015.3
20260902030440 81 360 0.0 0.0 0.00 0.00 0.00 83 1015.0
20260902025440 81 17 0.0 0.0 0.00 0.00 0.00 84 1015.0
20260902024440 81 17 0.0 0.0 0.00 0.00 0.00 82 1015.0
20260902023440 81 17 0.0 0.0 0.00 0.00 0.00 82 1015.1
20260902022510 81 17 0.0 0.0 0.00 0.00 0.00 84 1015.1
20260902021440 81 17 0.0 0.0 0.00 0.00 0.00 83 1015.0
20260902020440 81 17 0.0 0.0 0.00 0.00 0.00 84 1015.1
20260902015440 81 17 0.0 0.0 0.00 0.00 0.00 84 1014.9
20260902014440 82 17 0.0 0.0 0.00 0.00 0.00 84 1015.0
20260902012440 82 17 0.0 0.0 0.00 0.00 0.00 84 1014.9
20260902011440 82 17 0.0 0.0 0.00 0.00 0.00 83 1014.7
20260902010440 82 17 0.0 0.0 0.00 0.00 0.00 83 1014.7
20260902004440 83 17 0.0 0.0 0.00 0.00 0.00 81 1014.3
20260902003440 83 17 0.0 0.0 0.00 0.00 0.00 81 1013.9
20260902002540 83 17 0.0 0.0 0.00 0.00 0.00 80 1013.9
20260902000440 83 17 0.0 0.0 0.00 0.00 0.00 80 1013.9
20260901235440 83 17 0.0 0.0 0.00 0.00 0.00 79 1014.0
20260901234440 83 17 0.0 0.0 0.00 0.00 0.00 78 1014.0
20260901233440 84 17 0.0 0.0 0.00 0.00 0.00 78 1014.1
20260901232440 84 5 0.0 0.0 0.00 0.00 0.00 80 1014.1
20260901230440 84 207 0.0 0.0 0.00 0.00 0.00 78 1014.2
20260901225440 86 207 0.0 0.0 0.00 0.00 0.00 76 1014.2